[[{"header":{"parameterUnit":"m.s-1","parameterCategory":1,"la1":30.2991,"la2":30.254,"lo1":-89.0895,"lo2":-89.0444,"dy":0.0017,"dx":0.0017,"nx":28,"ny":28,"refTime":"2023-09-05T21:00:00:Z","depth":0,"parameterNumber":2,"parameterNumberName":"U-component_of_WINDS"},"data":[0,0,0,0,0,0,0,0,0,0,0,0,0,0,0,0,0,0,0,0,0,0,0,0,0,0,0,0,0,0,0,0,0,0,0,0,0,0,0,0,0,0,0,0,0,0,0,0,0,0,0,0,0,0,0,0,0,0,2.2569,2.2569,0,2.2568,2.2568,2.2568,2.2552,2.2552,2.2551,2.2551,2.2551,2.2551,2.2552,0,0,0,0,0,0,0,0,0,0,0,0,0,2.2557,2.2557,2.2569,2.2569,2.2569,2.2568,2.2568,2.2568,2.2552,2.2552,2.2551,2.2551,2.2551,2.2551,2.2552,0,0,0,0,0,0,0,0,0,0,0,0,0,2.256,2.2557,2.2569,2.2561,2.256,2.2568,2.2568,2.2568,2.2552,2.2552,2.2551,2.255,2.2551,2.2551,2.2552,2.2568,0,0,2.2553,2.2554,0,0,0,0,0,0,0,0,2.256,2.256,2.2562,2.2561,2.256,2.256,2.2564,2.2568,2.2552,2.2555,2.2551,2.255,2.2554,2.2555,2.2556,2.2568,2.2568,2.2554,2.2554,2.2554,2.2554,0,0,0,0,0,0,0,2.256,2.256,2.2569,2.2562,2.2561,2.2557,2.2557,2.2565,2.2558,2.2555,2.2554,2.2554,2.2554,2.2555,2.2556,2.2568,2.2554,2.2554,2.2554,2.2555,2.2594,2.2595,0,0,0,0,0,0,2.256,2.256,2.2569,2.2569,2.2559,2.2558,2.2558,2.256,2.2558,2.2557,2.2554,2.2553,2.2555,2.2555,2.2556,2.2575,2.2554,2.2555,2.2555,2.2594,2.2594,2.2595,0,0,0,0,0,0,2.256,2.2561,2.2569,2.2564,2.2565,2.2559,2.2562,2.2561,2.2562,2.2558,2.2557,2.2557,2.2554,2.2555,2.2565,2.2575,2.2555,2.2555,2.2593,2.2594,2.2595,2.2614,0,0,0,0,0,0,2.256,2.2561,2.2567,2.2564,2.2565,2.2578,2.2563,2.2561,2.2563,2.2562,2.256,2.2559,2.2554,2.2564,2.2566,2.2575,2.2556,2.2592,2.2593,2.2594,2.2612,2.2615,2.2618,0,0,0,0,0,2.256,2.2572,2.2567,2.2569,2.2572,2.2578,2.2579,2.2572,2.2564,2.257,2.2567,2.2559,2.2574,2.2566,2.2567,2.2577,2.2591,2.2593,2.2594,2.2611,2.2615,2.2618,0,0,0,0,0,0,2.2576,2.2572,2.2566,2.2579,2.2579,2.2576,2.2583,2.2576,2.2579,2.2577,2.2569,2.2569,2.2581,2.258,2.2571,2.2593,2.2581,2.2583,2.2593,2.2597,2.2599,2.26,2.2556,0,0,0,0,0,2.2582,2.2587,2.2583,2.2594,2.2594,2.2589,2.2591,2.2586,2.2586,2.2586,2.2584,2.2585,2.259,2.2593,2.2597,2.2612,2.2612,2.262,2.2622,2.2625,2.2627,2.2635,2.2639,2.26,2.26,2.26,0,0,2.2592,2.2591,2.2594,2.2597,2.2597,2.2603,2.2589,2.2596,2.26,2.2588,2.2597,2.2596,2.2596,2.2609,2.2615,2.2609,2.2637,2.2627,2.2629,2.2629,2.2637,2.2641,2.2644,2.2601,2.2601,2.2601,0,0,2.2615,2.2614,2.2624,2.2624,2.2624,2.262,2.2622,2.262,2.2619,2.2628,2.2619,2.2624,2.2632,2.2633,2.2635,2.2659,2.2652,2.266,2.2675,2.2684,2.2687,2.269,2.2699,2.2702,2.2662,2.2662,2.2662,0,2.2629,2.2637,2.2629,2.2637,2.2639,2.2628,2.2638,2.2638,2.264,2.2641,2.2634,2.2645,2.2644,2.2658,2.2664,2.2665,2.2668,2.2661,2.2687,2.269,2.2692,2.2701,2.2704,2.2663,2.2663,2.2663,2.2663,0,2.2654,2.266,2.2668,2.267,2.2672,2.2681,2.2675,2.2679,2.2674,2.2671,2.2682,2.268,2.2684,2.2687,2.2682,2.27,2.2696,2.2688,2.2676,2.2697,2.2705,2.2708,2.2665,2.2665,2.2664,2.2664,0,0,2.2687,2.2685,2.2688,2.2689,2.2688,2.2693,2.2701,2.2705,2.2709,2.271,2.2718,2.2725,2.2718,2.272,2.2715,2.2722,2.2742,2.2714,2.2714,2.272,2.2763,2.2769,2.2773,2.2737,2.2738,2.2739,2.2763,0,2.271,2.2724,2.2718,2.2733,2.2739,2.2729,2.2736,2.2737,2.2735,2.274,2.2737,2.2743,2.2733,2.2734,2.2741,2.2738,2.2751,2.2737,2.2745,2.2745,2.2746,2.2777,2.2784,2.2807,2.2766,2.2767,2.2767,0,2.2738,2.2741,2.2757,2.2755,2.2758,2.2765,2.2768,2.2773,2.2774,2.2771,2.2774,2.2767,2.2776,2.2764,2.2777,2.2767,2.277,2.277,2.277,2.2771,2.2758,2.278,2.2814,2.2818,2.2772,2.2771,2.2771,0,2.2762,2.2769,2.278,2.2781,2.2779,2.2785,2.2785,2.2785,2.2788,2.2791,2.2793,2.2797,2.2799,2.2803,2.2798,2.2789,2.2812,2.2799,2.2811,2.2811,2.2816,2.2816,2.2852,2.2817,2.2817,2.2817,2.2817,0,2.2788,2.2798,2.2791,2.2797,2.2809,2.2801,2.2813,2.2812,2.2812,2.2819,2.281,2.2816,2.2809,2.2815,2.2811,2.2823,2.2824,2.2823,2.2822,2.2824,2.2824,2.2826,2.2824,2.2818,2.2818,2.2818,2.2817,0,2.2816,2.2811,2.2823,2.282,2.282,2.2829,2.2827,2.2834,2.2831,2.2839,2.2841,2.2837,2.2843,2.2839,2.2845,2.2843,2.2858,2.2854,2.2858,2.2857,2.2869,2.2868,2.2908,2.2914,2.2875,2.2875,2.2876,0,2.2833,2.2841,2.284,2.2844,2.2844,2.285,2.2853,2.2847,2.285,2.2852,2.2858,2.2864,2.2868,2.288,2.2877,2.2882,2.2879,2.2893,2.288,2.2882,2.288,2.288,2.2881,2.2896,2.2896,2.2897,2.2897,0,2.2865,2.2862,2.2867,2.2871,2.2875,2.2878,2.288,2.2884,2.2877,2.2882,2.2888,2.2891,2.2898,2.2904,2.2909,2.2909,2.2902,2.2901,2.2904,2.2907,2.2908,2.2908,2.2865,2.29,2.29,2.29,2.2899,2.2899,2.2889,2.2895,2.2896,2.2901,2.2902,2.2905,2.2911,2.2909,2.2914,2.2919,2.2915,2.2923,2.2924,2.2929,2.293,2.2937,2.2931,2.2936,2.2937,2.2938,2.294,2.2907,2.2938,2.2938,2.2938,2.2937,2.2937,0,2.292,2.292,2.2925,2.2929,2.2933,2.2926,2.2928,2.2933,2.294,2.2942,2.2946,2.2954,2.296,2.2958,2.2964,2.297,2.2967,2.2971,2.2971,2.2971,2.2945,2.2942,2.2974,2.2974,2.2974,2.2974,2.2974,2.2974,2.2937,2.2948,2.2946,2.2958,2.2957,2.2965,2.2967,2.2969,2.2971,2.298,2.2985,2.2984,2.2984,2.299,2.2995,2.2995,2.2997,2.3003,2.3002,2.2977,2.2973,2.297,2.2967,2.3004,2.3004,2.3028,2.3028,2.3028]},{"header":{"parameterUnit":"m.s-1","parameterCategory":1,"la1":30.2991,"la2":30.254,"lo1":-89.0895,"lo2":-89.0444,"dy":0.0017,"dx":0.0017,"nx":28,"ny":28,"refTime":"2023-09-05T21:00:00:Z","depth":0,"parameterNumber":3,"parameterNumberName":"V-component_of_WINDS"},"data":[0,0,0,0,0,0,0,0,0,0,0,0,0,0,0,0,0,0,0,0,0,0,0,0,0,0,0,0,0,0,0,0,0,0,0,0,0,0,0,0,0,0,0,0,0,0,0,0,0,0,0,0,0,0,0,0,0,0,0.4905,0.4904,0,0.4813,0.4812,0.481,0.4782,0.4783,0.4783,0.4784,0.4687,0.4684,0.4681,0,0,0,0,0,0,0,0,0,0,0,0,0,0.5053,0.5051,0.4905,0.4904,0.4903,0.4813,0.4811,0.481,0.4782,0.4783,0.4783,0.4784,0.4688,0.4684,0.468,0,0,0,0,0,0,0,0,0,0,0,0,0,0.4978,0.505,0.4905,0.4878,0.4875,0.4813,0.4811,0.481,0.4782,0.4783,0.4784,0.4784,0.4689,0.4684,0.468,0.4638,0,0,0.4666,0.4664,0,0,0,0,0,0,0,0,0.4982,0.4972,0.4883,0.488,0.4876,0.481,0.4828,0.4752,0.4782,0.4817,0.4784,0.4785,0.4727,0.4719,0.47,0.4633,0.4629,0.4666,0.4663,0.4661,0.466,0,0,0,0,0,0,0,0.4987,0.4976,0.4868,0.4882,0.4877,0.4869,0.4859,0.4814,0.4769,0.4814,0.4812,0.4801,0.4725,0.4705,0.4698,0.4628,0.4666,0.4662,0.4659,0.4657,0.4519,0.4518,0,0,0,0,0,0,0.4998,0.4981,0.4871,0.4866,0.4932,0.4866,0.4855,0.483,0.477,0.4761,0.4801,0.4801,0.4712,0.4703,0.4694,0.4639,0.4661,0.4657,0.4654,0.452,0.4519,0.4518,0,0,0,0,0,0,0.5001,0.4988,0.4875,0.4922,0.4907,0.4863,0.4835,0.4828,0.4808,0.476,0.4751,0.4789,0.4712,0.4701,0.4652,0.4636,0.4655,0.4651,0.4521,0.452,0.4519,0.4531,0,0,0,0,0,0,0.5005,0.4989,0.4974,0.4922,0.4905,0.4835,0.4834,0.4826,0.48,0.4799,0.4746,0.4738,0.4712,0.4659,0.4647,0.463,0.4647,0.4523,0.4521,0.4519,0.4531,0.453,0.4528,0,0,0,0,0,0.5011,0.4981,0.4973,0.496,0.4885,0.4834,0.4824,0.4796,0.4799,0.4782,0.4751,0.4739,0.464,0.4654,0.4641,0.4622,0.4523,0.4521,0.4519,0.4532,0.453,0.4528,0,0,0,0,0,0,0.5031,0.4974,0.4965,0.4918,0.4881,0.483,0.4808,0.4795,0.4756,0.4756,0.4722,0.471,0.4663,0.4638,0.4655,0.4577,0.4581,0.4576,0.4595,0.4593,0.4591,0.4598,0.4643,0,0,0,0,0,0.5031,0.4995,0.4947,0.491,0.4892,0.4853,0.483,0.4811,0.4772,0.4756,0.4721,0.4683,0.4642,0.4616,0.4577,0.4528,0.4515,0.4508,0.4507,0.4506,0.4501,0.4472,0.4467,0.4511,0.4511,0.4511,0,0,0.5028,0.4992,0.4972,0.4913,0.4882,0.4845,0.484,0.4802,0.4773,0.475,0.4701,0.4675,0.4629,0.4579,0.4556,0.4556,0.4487,0.4503,0.4503,0.4499,0.4469,0.4465,0.4461,0.451,0.451,0.451,0,0,0.5005,0.4975,0.494,0.491,0.4864,0.4838,0.483,0.478,0.4761,0.4712,0.4693,0.4659,0.459,0.4558,0.4533,0.4496,0.4483,0.4484,0.4475,0.4447,0.4443,0.444,0.4425,0.442,0.448,0.448,0.448,0,0.5008,0.4952,0.4924,0.4886,0.4859,0.4837,0.48,0.4772,0.4715,0.4696,0.4698,0.4611,0.4579,0.4521,0.4512,0.4492,0.448,0.4489,0.4446,0.4443,0.4439,0.4424,0.4419,0.448,0.448,0.448,0.448,0,0.4957,0.4918,0.4895,0.4841,0.4812,0.4775,0.474,0.4714,0.4697,0.4671,0.462,0.4581,0.4532,0.4517,0.4501,0.4456,0.4457,0.4453,0.4456,0.4436,0.4421,0.4416,0.4481,0.4481,0.4481,0.4481,0,0,0.4943,0.4874,0.4866,0.484,0.4787,0.4757,0.4718,0.4671,0.4648,0.4609,0.4574,0.4517,0.4512,0.4483,0.4463,0.4438,0.4409,0.4437,0.4435,0.4431,0.4355,0.4357,0.4351,0.4401,0.4399,0.4398,0.4358,0,0.4912,0.4843,0.4815,0.4758,0.4721,0.4699,0.4665,0.4628,0.4602,0.4566,0.4537,0.4496,0.4494,0.4476,0.445,0.4418,0.4393,0.4421,0.4366,0.4364,0.4377,0.4344,0.4346,0.431,0.4352,0.4351,0.4351,0,0.4866,0.4827,0.4767,0.4717,0.47,0.467,0.4624,0.459,0.4547,0.453,0.4497,0.4478,0.4435,0.4442,0.438,0.44,0.4376,0.4357,0.4354,0.4347,0.4355,0.4334,0.4298,0.4292,0.4342,0.4342,0.4343,0,0.4861,0.4793,0.4748,0.4727,0.4668,0.4647,0.4621,0.4579,0.4552,0.4511,0.4493,0.4447,0.4422,0.4387,0.4355,0.4363,0.4296,0.4301,0.4279,0.4279,0.4265,0.4266,0.4223,0.4252,0.4252,0.4252,0.4252,0,0.4828,0.4791,0.4744,0.4716,0.4673,0.4642,0.46,0.4573,0.4536,0.45,0.4479,0.4446,0.4407,0.4369,0.4344,0.4296,0.4285,0.4268,0.4262,0.4269,0.4271,0.4252,0.4253,0.4251,0.4251,0.4251,0.4251,0,0.4814,0.4781,0.473,0.4678,0.4665,0.4635,0.459,0.4561,0.4534,0.449,0.4478,0.4435,0.4389,0.4354,0.4294,0.4277,0.4225,0.422,0.424,0.4236,0.4216,0.4218,0.4158,0.4147,0.4185,0.4185,0.4185,0,0.4794,0.4765,0.4711,0.4686,0.4661,0.4621,0.4593,0.4561,0.4532,0.448,0.4457,0.4409,0.437,0.4296,0.4259,0.4213,0.4204,0.4186,0.4197,0.4205,0.4202,0.4203,0.4199,0.4185,0.4184,0.4184,0.4184,0,0.4762,0.4747,0.4708,0.4663,0.4631,0.4593,0.4556,0.4536,0.4497,0.4466,0.4418,0.4388,0.4326,0.4278,0.4228,0.42,0.4184,0.4181,0.4173,0.418,0.4192,0.4183,0.4234,0.4182,0.4183,0.4183,0.4183,0.4183,0.4743,0.4716,0.4673,0.463,0.4598,0.4563,0.4533,0.4502,0.4462,0.441,0.4393,0.4344,0.4299,0.423,0.4202,0.4162,0.4162,0.4151,0.4148,0.4145,0.4144,0.42,0.4153,0.4153,0.4153,0.4153,0.4153,0,0.4708,0.468,0.464,0.4588,0.4554,0.4544,0.4501,0.4472,0.443,0.439,0.4351,0.4296,0.4249,0.4208,0.4159,0.4135,0.4126,0.4123,0.4123,0.4117,0.4148,0.4159,0.413,0.413,0.413,0.413,0.413,0.413,0.4686,0.4639,0.4619,0.4555,0.4525,0.4478,0.4454,0.4421,0.4389,0.4328,0.429,0.4263,0.4222,0.417,0.4126,0.4115,0.4097,0.4095,0.4082,0.4112,0.4115,0.4117,0.4127,0.4092,0.4092,0.4054,0.4053,0.4053]}]]